Weather History for Hattiesburg, MS

Change the Weather History Date:

Sunday, April 7, 2013

  Actual Average Record
Temperature  
Mean Temperature 61 °F 63 °F  
Max Temperature 77 °F 76 °F 87 °F (1948)
Min Temperature 44 °F 50 °F 31 °F (1950)
Degree Days  
Heating Degree Days 4 4  
Month to date heating degree days 41 32  
Since 1 July heating degree days 1783 1927  
Cooling Degree Days 0 2  
Month to date cooling degree days 0 14  
Year to date cooling degree days 37 62  
Growing Degree Days 10 (Base 50)    
Moisture  
Dew Point 48 °F    
Average Humidity 68    
Maximum Humidity 93    
Minimum Humidity 43    
Precipitation  
Precipitation 0.00 in 0.18 in 10.68 in (1983)
Month to date precipitation 0.68 1.31  
Year to date precipitation 21.26 17.94  
Sea Level Pressure  
Sea Level Pressure 30.08 in    
Wind  
Wind Speed 5 mph (SSE)    
Max Wind Speed 15 mph    
Max Gust Speed 21 mph    
Visibility 7 miles    
Events Fog    
T = Trace of Precipitation, MM = Missing Value Source: NWS Daily Summary

Daily Weather History Graph

Daily Weather History Graph

Search for Another Location

Airport:

Trip Planner

Search our weather history database for the weather conditions in past years. The results will help you decide how hot, cold, wet, or windy it might be!

Date:

Astronomy

Apr. 07, 2013 Rise Set
Actual Time 6:38 AM CDT 7:20 PM CDT
Civil Twilight 6:13 AM CDT 7:45 PM CDT
Nautical Twilight 5:44 AM CDT 8:14 PM CDT
Astronomical Twilight 5:15 AM CDT 8:43 PM CDT
Moon 4:45 AM CDT (4/7) 5:00 PM CDT (4/7)
Length of Visible Light 13h 31m
Length of Day
12h 42m
Waning Crescent, 8% of the Moon is Illuminated
Apr 7
Waning Crescent
Apr 10
New
Apr 18
First Quarter
Apr 25
Full
May 2
Last Quarter

Hourly Weather History & Observations

Time (CDT) Temp. Windchill Dew Point Humidity Pressure Visibility Wind Dir Wind Speed Gust Speed Precip Events Conditions
12:53 AM 50.0 °F - 48.0 °F 93% 30.10 in 9.0 mi Calm Calm - N/A   Clear
1:53 AM 48.9 °F - 46.0 °F 90% 30.09 in 10.0 mi Calm Calm - N/A   Clear
2:53 AM 46.9 °F - 45.0 °F 93% 30.07 in 10.0 mi Calm Calm - N/A   Clear
3:15 AM 46.4 °F - 44.6 °F 93% 30.08 in 10.0 mi Calm Calm - N/A   Partly Cloudy
3:53 AM 46.9 °F - 44.1 °F 90% 30.08 in 9.0 mi Calm Calm - N/A   Clear
4:53 AM 45.0 °F - 42.1 °F 90% 30.08 in 8.0 mi Calm Calm - N/A   Clear
5:14 AM 44.6 °F - 42.8 °F 93% 30.08 in 8.0 mi Calm Calm - N/A   Scattered Clouds
5:53 AM 44.1 °F - 42.1 °F 93% 30.09 in 7.0 mi Calm Calm - N/A   Mostly Cloudy
6:09 AM 44.6 °F 43.1 °F 42.8 °F 93% 30.09 in 1.8 mi SE 3.5 mph - N/A   Overcast
6:24 AM 44.6 °F - 42.8 °F 93% 30.10 in 0.8 mi Calm Calm - N/A   Mist
6:40 AM 44.6 °F - 42.8 °F 93% 30.11 in 0.2 mi Calm Calm - N/A Fog Fog
6:53 AM 44.1 °F - 43.0 °F 96% 30.11 in 0.2 mi Calm Calm - N/A Fog Fog
7:10 AM 44.6 °F - 42.8 °F 93% 30.12 in 0.5 mi Calm Calm - N/A Fog Fog
7:26 AM 44.6 °F - 44.6 °F 100% 30.12 in 2.0 mi Calm Calm - N/A   Mostly Cloudy
7:35 AM 44.6 °F 43.1 °F 44.6 °F 100% 30.13 in 3.0 mi ESE 3.5 mph - N/A   Mostly Cloudy
7:42 AM 46.4 °F - 44.6 °F 93% 30.13 in 2.5 mi Calm Calm - N/A   Mostly Cloudy
7:49 AM 46.4 °F - 44.6 °F 93% 30.13 in 3.0 mi Calm Calm - N/A   Mostly Cloudy
7:53 AM 46.0 °F - 45.0 °F 96% 30.14 in 3.0 mi Calm Calm - N/A   Overcast
8:29 AM 48.2 °F - 48.2 °F 100% 30.14 in 7.0 mi Calm Calm - N/A   Scattered Clouds
8:53 AM 55.0 °F - 52.0 °F 89% 30.14 in 10.0 mi Calm Calm - N/A   Clear
9:53 AM 66.9 °F - 55.9 °F 68% 30.13 in 10.0 mi ESE 8.1 mph - N/A   Clear
10:53 AM 69.1 °F - 53.1 °F 57% 30.13 in 10.0 mi SSE 10.4 mph - N/A   Mostly Cloudy
11:53 AM 72.0 °F - 52.0 °F 49% 30.11 in 10.0 mi Variable 4.6 mph 17.3 mph N/A   Scattered Clouds
12:53 PM 73.0 °F - 51.1 °F 46% 30.09 in 10.0 mi SSE 12.7 mph 19.6 mph N/A   Mostly Cloudy
1:53 PM 73.0 °F - 51.1 °F 46% 30.07 in 10.0 mi SSE 8.1 mph - N/A   Overcast
2:53 PM 75.0 °F - 52.0 °F 44% 30.05 in 10.0 mi SSE 12.7 mph - N/A   Mostly Cloudy
3:53 PM 75.0 °F - 53.1 °F 46% 30.03 in 10.0 mi SSE 9.2 mph - N/A   Mostly Cloudy
4:53 PM 73.9 °F - 52.0 °F 46% 30.02 in 10.0 mi SSE 12.7 mph - N/A   Scattered Clouds
5:53 PM 73.9 °F - 52.0 °F 46% 30.02 in 10.0 mi South 10.4 mph - N/A   Scattered Clouds
6:53 PM 72.0 °F - 53.1 °F 51% 30.01 in 10.0 mi South 8.1 mph - N/A   Mostly Cloudy
7:53 PM 66.0 °F - 54.0 °F 65% 30.02 in 10.0 mi SSE 5.8 mph - N/A   Clear
8:53 PM 64.9 °F - 55.0 °F 70% 30.02 in 10.0 mi South 5.8 mph - N/A   Clear
9:53 PM 63.0 °F - 55.0 °F 75% 30.04 in 10.0 mi South 3.5 mph - N/A   Clear
10:53 PM 61.0 °F - 55.9 °F 83% 30.03 in 10.0 mi South 6.9 mph - N/A   Clear
11:53 PM 60.1 °F - 55.9 °F 86% 30.03 in 10.0 mi Calm Calm - N/A   Clear